COSMOS 2491 DEB, 45172

Orbit data source: Space-Track

COSMOS 2491 DEB, 45172 is space debris in LEO originally from a launch on Wed, 25 Dec 2013 UTC launched from the Plesetsk Missile And Space Complex (PKMTR). Debris objects in space refer to the collection of defunct objects orbiting the Earth. Examples of debris include non-operational satellites, rocket bodies, and fragments generated from explosions, collisions, or faulty payload assembly.

Loading next visibility...
Identifier
45172, 2013-076AD
Orbit
LEO
Country
Flag of CISCIS
Related business
Manufacturer
TsNIIKhM
Mission
Spacecraft
Bus & Motor
Unknown
Mass
Unknown
Launch date (UTC)
2013-12-25 (12 years ago)
Launch vehicle
Unknown
Launch site
Plesetsk Missile And Space Complex (PKMTR)
Object type
Payload
Rocket body
Debris
Shape & HBR
Unknown shape, 0.1 m
Radar Cross Section
Medium (>0.1 m² and <1 m²)

Expand to show TLE details & history
Last TLE update: 4 days ago

TLE from 4 days ago
0 COSMOS 2491 DEB
1 45172U 13076AD  26169.52668755  .00002645  00000-0  13185-1 0  9990
2 45172  82.4534 109.3343 0114702 122.4834 238.7410 12.68574612294450
Epoch: 2026-06-18T12:38Z
TLE epoch observation values (Epoch: 2026-06-18T12:38:25.804Z)
Latitude
0.00001°
Longitude
12.95804°
Altitude
1,437.459 km
Speed
7.121 km/s
True Right ascension
07h 17m 20s
True Declination
0° 00' 00"
Sunlit
Object was in daylight at epoch
Visualization orbit readout
Latitude
Unknown
Longitude
Unknown
Altitude
Unknown
Speed
Unknown
Apparent Right ascension
Unknown
Apparent Declination
Unknown
Sunlit
N/A
Visualization observer readout
Local Sidereal Time
21:38:03
Azimuth
Unknown
Elevation
Unknown
Doppler factor
Unknown
Orbital elements
Apogee altitude
1,474.113 km
Perigee altitude
1,296.022 km
Semi-major axis
7,763.205 km
Eccentricity
0.01147
Inclination
82.4534°
RAAN
109.3343°
Arg. of periapsis
122.4834°
True anomaly
237.62579°
Mean anomaly
238.741°
Eccentric anomaly
238.18256°
Mean motion
3.17308 °/min
Orbital period
113.45 mins
BSTAR
0.013185
Loading maneuver chart data...
Computing Atmospheric mass density...
Loading historical data...
Loading historical data...
Loading historical data...
Loading historical data...
Loading historical data...
Loading historical data...
Loading historical data...

Documentation

Showing up to 5 results
|